Location: La Pernelle
(49.6188°N, 1.2999°W)
Time: 07:08:16
(UTC+00:00)

Okean 1 Rocket - Visible Passes

Search period start: 24 October 2021 00:00
Search period end: 03 November 2021 00:00
Orbit: 606 x 635 km, 82.5° (Epoch: 23 October)

Date Brightness Start Highest point End Pass type
(mag) Time Alt. Az. Time Alt. Az. Time Alt. Az.
24 Oct 5.6 03:28:29 10° N 03:36:20 13° SE 03:36:55 10° SE visible
24 Oct 5.3 05:13:47 11° SW 05:13:47 11° SW 05:13:57 10° SW visible
24 Oct 4.3 17:42:11 10° SSW 17:46:22 46° WNW 17:50:36 10° N visible
25 Oct6.203:57:14SSE03:57:14SSE03:45:01Nvisible
25 Oct 5.3 18:00:36 10° SW 18:04:19 27° WNW 18:08:04 10° N visible
26 Oct 5.9 18:19:31 10° WSW 18:22:21 17° WNW 18:25:12 10° NNW visible
27 Oct 6.4 18:40:04 10° WNW 18:40:30 10° WNW 18:40:57 10° NW visible
28 Oct 4.5 17:15:27 10° SW 17:19:35 42° WNW 17:23:47 10° N visible
29 Oct 5.4 17:33:55 10° SW 17:37:32 25° WNW 17:41:13 10° NNW visible
30 Oct 5.9 17:52:56 10° W 17:55:36 16° WNW 17:58:17 10° NNW visible
02 Nov 5.5 17:07:14 10° WSW 17:10:47 24° WNW 17:14:22 10° NNW visible
